Hourly Data Report for November 12, 2020

OTTAWA INTL A
ONTARIO
Current Station Operator: NAVCAN

45°19'00.000" N
75°40'00.000" W
114.90 m
6106001
71628
YOW

Download Data

Hourly Data (November 2020)
Hourly Data Report for November 12, 2020
TIME Temp Definition
°C
Dew Point Definition
°C
Rel Hum Definition
%
Wind Dir Definition
10's deg

Wind Spd Definition
km/h
Visibility Definition
km
Stn Press Definition
kPa
Hmdx Definition


Wind Chill Definition


Weather Definition


00:00 2.7 -0.9 77 24 12 24.1 100.14     LegendNANA
01:00 2.4 -0.7 80 24 10 24.1 100.21     Mainly Clear
02:00 1.6 -1.0 82 25 12 24.1 100.25     LegendNANA
03:00 1.8 -0.8 82 27 14 24.1 100.31     LegendNANA
04:00 2.2 -1.6 76 27 16 24.1 100.38     Clear
05:00 1.1 -2.0 79 27 14 24.1 100.45     LegendNANA
06:00 0.2 -2.4 82 26 11 24.1 100.52     LegendNANA
07:00 2.0 -1.4 78 28 12 24.1 100.59     Mostly Cloudy
08:00 2.6 -1.1 76 23 7 24.1 100.68     LegendNANA
09:00 4.2 -0.9 69 25 7 24.1 100.75     LegendNANA
10:00 5.3 -2.3 58 28 16 24.1 100.77     Mainly Clear
11:00 5.8 -2.2 56 28 14 24.1 100.78     LegendNANA
12:00 5.9 -2.8 53 29 10 24.1 100.69     LegendNANA
13:00 7.5 -1.8 52 29 13 24.1 100.68     Mainly Clear
14:00 7.1 -2.6 50 30 7 24.1 100.67     LegendNANA
15:00 7.2 -2.6 49 28 8 24.1 100.71     LegendNANA
16:00 6.0 -2.6 54 24 10 24.1 100.77     Mostly Cloudy
17:00 4.5 -3.6 56 27 7 24.1 100.72     LegendNANA
18:00 2.4 -3.8 63 36 2 24.1 100.64     LegendNANA
19:00 1.5 -3.7 68 36 2 24.1 100.64     Clear
20:00 -0.6 -4.1 77 19 5 24.1 100.71   -2 LegendNANA
21:00 -0.5 -4.1 77 16 5 24.1 100.77   -2 LegendNANA
22:00 -0.7 -3.9 79 19 8 24.1 100.78   -4 Mainly Clear
23:00 -1.9 -5.5 76 15 4 24.1 100.70   -3 LegendNANA

Notes on Data Quality.

Legend

  • E = Estimated
  • M = Missing
  • NA = Not Available*
  • [empty] = Indicates an unobserved value
Date modified: